吉林一号 宽幅 01星 (JILIN-1 KUANFU 01)

导读 | 豆包AI

JILIN-01 KUANFU 01(吉林一号宽幅01星)是中国于2020年1月15日发射的高分辨率光学遥感卫星,由长光卫星自主研发,运行于530km高度的太阳同步轨道,具备全色0.72m、多光谱0.36m分辨率,拥有70km超大幅宽,重访周期仅45分钟,可快速获取高质量遥感影像,为农业、林业、城市规划、防灾减灾等领域提供精准的空间信息服务。

基本信息
目录编号:
45016
目录名称:
JILIN-01 KUANFU 01
国际标识:
2020-003A
轨道中心:
EARTH
卫星名称:
宽幅 01星
卫星全名:
吉林一号 宽幅 01星 (JILIN-1 KUANFU 01)
卫星状态:
在轨 (已飞行2250 天)
发射日期:
2020-01-15 UTC
国别 :
中国 (CN)
星等 :
--
轨道信息
数据来源 国际轨道数据
星历时间: 2026-03-13T22:57:59+0800
9小时前
查看轨道信息
半长轴: 6913.995km
偏心率: 0.0008396
轨道倾角: 97.510°
近地点辐角 270.203°
升交点赤经 148.459°
平近点角 89.824°
近地点: 530.053km
远地点: 541.663km
周期: 95.357分钟
每日圈数: 15.101122
详细信息
卫星平台:
高分卫星平台
平衡模式:
三轴稳定
覆盖范围:
全球
运营商:
长光卫星技术股份有限公司
运营商所在国:
中国
制造商(研发单位):
长光卫星技术股份有限公司
制造商所在国:
中国
使用方式:
暂无
卫星简介
“吉林一号”卫星星座(JiLin-1)是长光卫星技术有限公司在建的核心工程,是我国目前最大的商业遥感卫星星座,具备了较强的服务能力。该卫星仍在工作。
2D轨道图
3D轨道图
轨道高度分析图
轨道倾角分析图
轨道综合分析图
查看轨道综合分析图